Tracking 22881 objects as of 20-Apr-2021
HD Live streaming from Space Station
objects crossing your sky now

STARLINK-2301

Track STARLINK-2301 now!
10-day predictions
STARLINK-2301 is classified as:


NORAD ID: 48021
Int'l Code: 2021-024AW
Perigee: 356.0 km
Apogee: 357.8 km
Inclination: 53.0 °
Period: 91.5 minutes
Semi major axis: 6727 km
RCS: Unknown
Launch date: March 24, 2021
Source: United States (US)
Launch site: AIR FORCE EASTERN TEST RANGE (AFETR)
aabbcc
Your satellite tracking list
Your tracking list is empty




NASA's NSSDC Master Catalog

Two Line Element Set (TLE):
1 48021U 21024AW  21109.83334491  .00088017  00000-0  62504-3 0  9996
2 48021  53.0482  72.6295 0001355  83.9732 166.0796 15.73194050  4965
Source of the keplerian elements: AFSPC